Simultaneous Nadir Overpasses (SNOs) Predictions

Prediction of SNOs near US between NOAA-19 and NPP Satellite Orbit:

Table of predicted SNOs near US for the next 10.0 days since TLE Epoch: 4/8/2012
Index Date (NOAA-19) Time (NOAA-19) NOAA-19 Lat,Lon Date (NPP) Time (NPP) NPP Lat,Lon Distance(km) Time Diff (sec)
1 04/09/2012 06:18:59 36.94, -65.03 04/09/2012 06:19:43 37.41, -67.27 205.73 44
2 04/09/2012 07:57:19 49.91, -85.69 04/09/2012 07:57:30 50.31, -87.83 158.87 11
3 04/09/2012 09:39:47 48.61,-111.79 04/09/2012 09:39:23 48.98,-113.79 152.38 24
4 04/09/2012 17:47:31 49.98, -74.50 04/09/2012 17:44:22 49.81, -75.53 76.27 189
5 04/09/2012 19:29:36 49.95,-100.01 04/09/2012 19:25:52 49.82,-100.91 66.15 224
6 04/09/2012 21:11:20 48.74,-124.99 04/09/2012 21:07:01 48.62,-125.76 58.04 259
7 04/10/2012 07:55:10
